GW0262 Weather Reports


time (UTC)temp
C
wind
direction
speed
KPH
gust
KPH
rain 1hr
cm
rain 24hr
cm
rain mn
cm
humidity
%
barometer
mb
20260504081600 7 113 0.0 3.2 0.00 0.00 0.00 79 1015.8
20260504044604 7 0 0.0 0.0 0.00 0.00 0.00 78 1016.2
20260504043056 7 0 0.0 0.0 0.00 0.00 0.00 78 1016.2
20260504041554 7 0 0.0 0.0 0.00 0.00 0.00 75 1016.1
20260504040051 7 0 0.0 0.0 0.00 0.00 0.00 76 1016.0
20260504034611 7 0 0.0 0.0 0.00 0.00 0.00 74 1016.0
20260504033055 7 0 0.0 0.0 0.00 0.00 0.00 77 1015.9
20260504031550 7 0 0.0 0.0 0.00 0.00 0.00 71 1016.0
20260504030052 7 0 0.0 1.6 0.00 0.00 0.00 74 1015.9
20260504024554 7 0 0.0 0.0 0.00 0.00 0.00 69 1015.9
20260504023055 7 0 0.0 1.6 0.00 0.00 0.00 69 1015.8
20260504021556 6 0 0.0 0.0 0.00 0.00 0.00 71 1015.6
20260504020057 7 0 0.0 1.6 0.00 0.00 0.00 68 1015.5
20260504014609 7 0 0.0 0.0 0.00 0.00 0.00 67 1015.4
20260504013104 7 0 0.0 0.0 0.00 0.00 0.00 65 1015.2
20260504011600 8 0 0.0 1.6 0.00 0.00 0.00 64 1015.3
20260504004551 9 0 0.0 0.0 0.00 0.00 0.00 61 1015.1
20260504003059 10 0 0.0 1.6 0.00 0.00 0.00 57 1015.1
20260504001604 11 0 0.0 0.0 0.00 0.00 0.00 51 1015.1
20260504000056 12 0 0.0 0.0 0.00 0.00 0.00 46 1015.0
20260503234551 14 0 0.0 3.2 0.00 0.00 0.00 41 1014.8
20260503233054 15 0 0.0 3.2 0.00 0.00 0.00 39 1014.7
20260503231550 15 117 0.0 4.8 0.00 0.00 0.00 37 1014.7
20260503230052 16 302 0.0 6.4 0.00 0.00 0.00 36 1014.7
20260503224550 16 109 0.0 9.7 0.00 0.00 0.00 34 1014.6
20260503223049 16 115 0.0 6.4 0.00 0.00 0.00 34 1014.7
20260503221554 17 121 1.6 11.3 0.00 0.00 0.00 32 1014.8
20260503220054 17 238 3.2 11.3 0.00 0.00 0.00 31 1014.8
20260503214550 17 105 1.6 6.4 0.00 0.00 0.00 32 1014.9
20260503213056 17 162 3.2 12.9 0.00 0.00 0.00 32 1014.8
20260503211554 17 125 4.8 11.3 0.00 0.00 0.00 29 1014.8
20260503204554 17 316 3.2 14.5 0.00 0.00 0.00 29 1015.1
20260503203102 17 27 3.2 12.9 0.00 0.00 0.00 31 1015.3
20260503201553 17 316 3.2 11.3 0.00 0.00 0.00 29 1015.4
20260503200058 18 283 4.8 12.9 0.00 0.00 0.00 28 1015.6
20260503194555 17 291 4.8 20.9 0.00 0.00 0.00 29 1015.7
20260503193052 17 280 3.2 24.1 0.00 0.00 0.00 31 1016.2
20260503191552 16 213 3.2 16.1 0.00 0.00 0.00 31 1016.3
20260503190055 16 318 6.4 17.7 0.00 0.00 0.00 30 1016.6
20260503184608 16 236 6.4 16.1 0.00 0.00 0.00 30 1016.9
20260503183059 16 205 4.8 12.9 0.00 0.00 0.00 32 1017.2
20260503181608 16 298 3.2 16.1 0.00 0.00 0.00 31 1017.3
20260503180056 15 310 1.6 6.4 0.00 0.00 0.00 35 1017.4
20260503174549 16 342 4.8 16.1 0.00 0.00 0.00 30 1017.7
20260503173101 16 321 3.2 17.7 0.00 0.00 0.00 35 1017.7
20260503171555 15 5 6.4 16.1 0.00 0.00 0.00 34 1017.6